Time,TemperatureF,DewpointF,PressureIn,WindDirection,WindDirectionDegrees,WindSpeedMPH,WindSpeedGustMPH,Humidity,HourlyPrecipIn,Conditions,Clouds,dailyrainin,SoftwareType,DateUTC
2013-04-04 00:02:00,43.4,26.0,30.23,ENE,71,3.0,4.5,50,0.00,,CLR,0.00,VWS V14.01,2013-04-04 05:02:00,
2013-04-04 00:07:00,43.4,26.0,30.23,ENE,64,0.0,4.5,50,0.00,,CLR,0.00,VWS V14.01,2013-04-04 05:07:00,
2013-04-04 00:12:00,43.3,25.9,30.22,ENE,63,0.0,4.5,50,0.00,,CLR,0.00,VWS V14.01,2013-04-04 05:12:00,
2013-04-04 00:17:00,43.2,25.8,30.22,ENE,62,1.5,4.5,50,0.00,,CLR,0.00,VWS V14.01,2013-04-04 05:17:00,
2013-04-04 00:22:00,43.1,26.2,30.22,ENE,62,0.0,4.5,51,0.00,,CLR,0.00,VWS V14.01,2013-04-04 05:22:00,
2013-04-04 00:27:00,42.9,26.0,30.22,ENE,62,0.0,4.5,51,0.00,,CLR,0.00,VWS V14.01,2013-04-04 05:27:00,
2013-04-04 00:32:00,42.8,25.9,30.22,ENE,62,0.0,0.0,51,0.00,,CLR,0.00,VWS V14.01,2013-04-04 05:32:00,
2013-04-04 00:37:00,42.6,26.2,30.22,ENE,62,0.0,1.5,52,0.00,,CLR,0.00,VWS V14.01,2013-04-04 05:37:00,
2013-04-04 00:42:00,42.5,26.1,30.22,ENE,62,0.0,1.5,52,0.00,,CLR,0.00,VWS V14.01,2013-04-04 05:42:00,
2013-04-04 00:47:00,42.3,25.9,30.22,ENE,61,0.0,3.0,52,0.00,,CLR,0.00,VWS V14.01,2013-04-04 05:47:00,
2013-04-04 00:52:00,42.2,25.9,30.22,ENE,61,0.0,3.0,52,0.00,,CLR,0.00,VWS V14.01,2013-04-04 05:52:00,
2013-04-04 00:57:00,42.1,25.8,30.22,ENE,61,1.5,4.5,52,0.00,,CLR,0.00,VWS V14.01,2013-04-04 05:57:00,
2013-04-04 01:02:00,41.9,25.6,30.22,ENE,59,3.0,6.0,52,0.00,,CLR,0.00,VWS V14.01,2013-04-04 06:02:00,
2013-04-04 01:07:00,41.8,25.5,30.21,NE,51,4.5,6.0,52,0.00,,CLR,0.00,VWS V14.01,2013-04-04 06:07:00,
2013-04-04 01:12:00,41.7,25.9,30.21,NE,45,4.5,6.0,53,0.00,,CLR,0.00,VWS V14.01,2013-04-04 06:12:00,
2013-04-04 01:17:00,41.5,25.7,30.21,NE,44,4.5,6.0,53,0.00,,CLR,0.00,VWS V14.01,2013-04-04 06:17:00,
2013-04-04 01:23:00,41.3,25.9,30.21,NE,43,4.5,6.0,54,0.00,,CLR,0.00,VWS V14.01,2013-04-04 06:23:00,
2013-04-04 01:28:00,41.2,25.8,30.21,NE,36,4.5,9.0,54,0.00,,CLR,0.00,VWS V14.01,2013-04-04 06:28:00,
2013-04-04 01:33:00,41.2,25.8,30.21,NE,46,0.0,6.0,54,0.00,,CLR,0.00,VWS V14.01,2013-04-04 06:33:00,
2013-04-04 01:38:00,41.2,25.8,30.21,NE,50,0.0,6.0,54,0.00,,CLR,0.00,VWS V14.01,2013-04-04 06:38:00,
2013-04-04 01:43:00,41.2,25.8,30.21,NE,50,0.0,6.0,54,0.00,,CLR,0.00,VWS V14.01,2013-04-04 06:43:00,
2013-04-04 01:48:00,41.1,25.3,30.21,NE,50,0.0,6.0,53,0.00,,CLR,0.00,VWS V14.01,2013-04-04 06:48:00,
2013-04-04 01:53:00,41.1,25.7,30.21,NE,50,0.0,6.0,54,0.00,,CLR,0.00,VWS V14.01,2013-04-04 06:53:00,
2013-04-04 01:58:00,41.0,25.6,30.21,NE,49,6.0,6.0,54,0.00,,CLR,0.00,VWS V14.01,2013-04-04 06:58:00,
2013-04-04 02:03:00,40.9,25.5,30.20,NE,38,4.5,6.0,54,0.00,,CLR,0.00,VWS V14.01,2013-04-04 07:03:00,
2013-04-04 02:08:00,40.8,25.9,30.20,NE,38,1.5,7.5,55,0.00,,CLR,0.00,VWS V14.01,2013-04-04 07:08:00,
2013-04-04 02:13:00,40.7,25.8,30.20,NE,38,3.0,7.5,55,0.00,,CLR,0.00,VWS V14.01,2013-04-04 07:13:00,
2013-04-04 02:18:00,40.6,25.7,30.19,NE,34,6.0,7.5,55,0.00,,CLR,0.00,VWS V14.01,2013-04-04 07:18:00,
2013-04-04 02:23:00,40.3,25.4,30.19,NNE,28,7.5,9.0,55,0.00,,CLR,0.00,VWS V14.01,2013-04-04 07:23:00,
2013-04-04 02:28:00,40.0,25.6,30.18,NNE,31,3.0,9.0,56,0.00,,CLR,0.00,VWS V14.01,2013-04-04 07:28:00,
2013-04-04 02:33:00,40.0,26.0,30.18,NE,42,3.0,6.0,57,0.00,,CLR,0.00,VWS V14.01,2013-04-04 07:33:00,
2013-04-04 02:38:00,40.0,26.0,30.18,NE,52,1.5,6.0,57,0.00,,CLR,0.00,VWS V14.01,2013-04-04 07:38:00,
2013-04-04 02:43:00,39.9,25.9,30.18,NE,52,4.5,6.0,57,0.00,,CLR,0.00,VWS V14.01,2013-04-04 07:43:00,
2013-04-04 02:48:00,39.8,25.8,30.18,NE,44,3.0,6.0,57,0.00,,CLR,0.00,VWS V14.01,2013-04-04 07:48:00,
2013-04-04 02:53:00,39.8,25.8,30.17,NE,43,3.0,6.0,57,0.00,,CLR,0.00,VWS V14.01,2013-04-04 07:53:00,
2013-04-04 02:58:00,39.7,25.7,30.17,NE,42,4.5,6.0,57,0.00,,CLR,0.00,VWS V14.01,2013-04-04 07:58:00,
2013-04-04 03:03:00,39.7,26.1,30.17,NE,42,4.5,6.0,58,0.00,,CLR,0.00,VWS V14.01,2013-04-04 08:03:00,
2013-04-04 03:08:00,39.6,26.1,30.17,NE,40,4.5,6.0,58,0.00,,CLR,0.00,VWS V14.01,2013-04-04 08:08:00,
2013-04-04 03:13:00,39.4,25.9,30.17,NE,40,4.5,6.0,58,0.00,,CLR,0.00,VWS V14.01,2013-04-04 08:13:00,
2013-04-04 03:18:00,39.3,25.8,30.17,NE,41,1.5,6.0,58,0.00,,CLR,0.00,VWS V14.01,2013-04-04 08:18:00,
2013-04-04 03:23:00,39.2,25.7,30.17,NE,41,4.5,6.0,58,0.00,,CLR,0.00,VWS V14.01,2013-04-04 08:23:00,
2013-04-04 03:28:00,39.1,26.0,30.17,NE,41,3.0,6.0,59,0.00,,CLR,0.00,VWS V14.01,2013-04-04 08:28:00,
2013-04-04 03:33:00,38.9,25.8,30.17,NE,41,4.5,6.0,59,0.00,,CLR,0.00,VWS V14.01,2013-04-04 08:33:00,
2013-04-04 03:38:00,38.8,25.7,30.17,NE,40,3.0,6.0,59,0.00,,CLR,0.00,VWS V14.01,2013-04-04 08:38:00,
2013-04-04 03:43:00,38.7,25.6,30.17,NE,40,4.5,6.0,59,0.00,,CLR,0.00,VWS V14.01,2013-04-04 08:43:00,
2013-04-04 03:49:00,38.6,25.9,30.16,NE,42,4.5,6.0,60,0.00,,CLR,0.00,VWS V14.01,2013-04-04 08:49:00,
2013-04-04 03:54:00,38.5,25.8,30.16,NE,42,3.0,6.0,60,0.00,,CLR,0.00,VWS V14.01,2013-04-04 08:54:00,
2013-04-04 03:59:00,38.5,25.8,30.16,NE,43,4.5,6.0,60,0.00,,CLR,0.00,VWS V14.01,2013-04-04 08:59:00,
2013-04-04 04:04:00,38.4,25.7,30.16,NE,44,4.5,6.0,60,0.00,,CLR,0.00,VWS V14.01,2013-04-04 09:04:00,
2013-04-04 04:09:00,38.3,25.6,30.16,NE,42,3.0,7.5,60,0.00,,CLR,0.00,VWS V14.01,2013-04-04 09:09:00,
2013-04-04 04:14:00,38.2,25.1,30.16,NE,40,6.0,7.5,59,0.00,,CLR,0.00,VWS V14.01,2013-04-04 09:14:00,
2013-04-04 04:19:00,38.0,25.4,30.15,NE,37,3.0,7.5,60,0.00,,CLR,0.00,VWS V14.01,2013-04-04 09:19:00,
2013-04-04 04:24:00,37.8,25.2,30.15,NE,37,3.0,7.5,60,0.00,,CLR,0.00,VWS V14.01,2013-04-04 09:24:00,
2013-04-04 04:29:00,37.7,25.1,30.15,NE,37,1.5,3.0,60,0.00,,CLR,0.00,VWS V14.01,2013-04-04 09:29:00,
2013-04-04 04:34:00,37.7,25.5,30.15,NE,38,3.0,4.5,61,0.00,,CLR,0.00,VWS V14.01,2013-04-04 09:34:00,
2013-04-04 04:39:00,37.6,25.4,30.15,NE,40,6.0,6.0,61,0.00,,CLR,0.00,VWS V14.01,2013-04-04 09:39:00,
2013-04-04 04:44:00,37.6,25.4,30.15,NE,40,3.0,7.5,61,0.00,,CLR,0.00,VWS V14.01,2013-04-04 09:44:00,
2013-04-04 04:49:00,37.6,25.4,30.15,NE,40,4.5,7.5,61,0.00,,CLR,0.00,VWS V14.01,2013-04-04 09:49:00,
2013-04-04 04:54:00,37.5,25.3,30.15,NE,42,3.0,7.5,61,0.00,,CLR,0.00,VWS V14.01,2013-04-04 09:54:00,
2013-04-04 05:00:00,37.4,25.6,30.15,NE,42,3.0,6.0,62,0.00,,CLR,0.00,VWS V14.01,2013-04-04 10:00:00,
2013-04-04 05:05:00,37.4,25.6,30.15,NE,35,7.5,9.0,62,0.00,,CLR,0.00,VWS V14.01,2013-04-04 10:05:00,
2013-04-04 05:10:00,37.3,25.1,30.15,NE,34,6.0,9.0,61,0.00,,CLR,0.00,VWS V14.01,2013-04-04 10:10:00,
2013-04-04 05:15:00,37.3,25.5,30.15,NE,35,6.0,9.0,62,0.00,,CLR,0.00,VWS V14.01,2013-04-04 10:15:00,
2013-04-04 05:20:00,37.3,25.5,30.15,NNE,31,4.5,9.0,62,0.00,,CLR,0.00,VWS V14.01,2013-04-04 10:20:00,
2013-04-04 05:25:00,37.3,25.5,30.15,NE,34,4.5,9.0,62,0.00,,CLR,0.00,VWS V14.01,2013-04-04 10:25:00,
2013-04-04 05:30:00,37.3,25.1,30.14,NE,39,4.5,9.0,61,0.00,,CLR,0.00,VWS V14.01,2013-04-04 10:30:00,
2013-04-04 05:35:00,37.3,25.1,30.14,NNE,30,6.0,10.5,61,0.00,,CLR,0.00,VWS V14.01,2013-04-04 10:35:00,
2013-04-04 05:40:00,37.3,25.5,30.14,NE,36,7.5,10.5,62,0.00,,CLR,0.00,VWS V14.01,2013-04-04 10:40:00,
2013-04-04 05:45:00,37.2,25.4,30.14,NE,38,9.0,10.5,62,0.00,,CLR,0.00,VWS V14.01,2013-04-04 10:45:00,
2013-04-04 05:50:00,37.2,25.0,30.14,NE,36,6.0,10.5,61,0.00,,CLR,0.00,VWS V14.01,2013-04-04 10:50:00,
2013-04-04 05:55:00,37.1,24.9,30.14,NE,36,6.0,10.5,61,0.00,,CLR,0.00,VWS V14.01,2013-04-04 10:55:00,
2013-04-04 06:00:00,37.1,24.9,30.15,NNE,29,4.5,9.0,61,0.00,,CLR,0.00,VWS V14.01,2013-04-04 11:00:00,
2013-04-04 06:05:00,37.0,24.8,30.15,NE,36,3.0,10.5,61,0.00,,CLR,0.00,VWS V14.01,2013-04-04 11:05:00,
2013-04-04 06:10:00,37.1,24.9,30.15,NE,40,3.0,10.5,61,0.00,,CLR,0.00,VWS V14.01,2013-04-04 11:10:00,
2013-04-04 06:15:00,37.0,25.2,30.15,NE,40,3.0,10.5,62,0.00,,CLR,0.00,VWS V14.01,2013-04-04 11:15:00,
2013-04-04 06:20:00,36.9,25.1,30.15,NE,40,6.0,10.5,62,0.00,,CLR,0.00,VWS V14.01,2013-04-04 11:20:00,
2013-04-04 06:25:00,36.8,25.0,30.15,NE,36,4.5,10.5,62,0.00,,CLR,0.00,VWS V14.01,2013-04-04 11:25:00,
2013-04-04 06:30:00,36.6,24.8,30.15,NE,37,4.5,6.0,62,0.00,,CLR,0.00,VWS V14.01,2013-04-04 11:30:00,
2013-04-04 06:35:00,36.5,24.7,30.15,NE,37,3.0,7.5,62,0.00,,CLR,0.00,VWS V14.01,2013-04-04 11:35:00,
2013-04-04 06:40:00,36.5,24.3,30.15,NE,37,4.5,7.5,61,0.00,,CLR,0.00,VWS V14.01,2013-04-04 11:40:00,
2013-04-04 06:45:00,36.4,24.2,30.15,NE,37,6.0,7.5,61,0.00,,CLR,0.00,VWS V14.01,2013-04-04 11:45:00,
2013-04-04 06:51:00,36.4,24.2,30.15,NE,37,3.0,7.5,61,0.00,,CLR,0.00,VWS V14.01,2013-04-04 11:51:00,
2013-04-04 06:56:00,36.4,24.6,30.15,NE,38,6.0,7.5,62,0.00,,CLR,0.00,VWS V14.01,2013-04-04 11:56:00,
2013-04-04 07:01:00,36.4,24.6,30.15,NE,38,4.5,7.5,62,0.00,,BKN150,0.00,VWS V14.01,2013-04-04 12:01:00,
2013-04-04 07:06:00,36.4,24.6,30.15,NE,38,6.0,9.0,62,0.00,,BKN150,0.00,VWS V14.01,2013-04-04 12:06:00,
2013-04-04 07:11:00,36.4,24.6,30.15,NE,38,6.0,9.0,62,0.00,,BKN150,0.00,VWS V14.01,2013-04-04 12:11:00,
2013-04-04 07:16:00,36.5,24.7,30.15,NE,38,4.5,9.0,62,0.00,,BKN150,0.00,VWS V14.01,2013-04-04 12:16:00,
2013-04-04 07:21:00,36.5,24.7,30.15,NE,38,4.5,9.0,62,0.00,,BKN150,0.00,VWS V14.01,2013-04-04 12:21:00,
2013-04-04 07:26:00,36.5,24.7,30.15,NNE,33,7.5,9.0,62,0.00,,BKN150,0.00,VWS V14.01,2013-04-04 12:26:00,
2013-04-04 07:31:00,36.6,24.8,30.15,NE,40,3.0,7.5,62,0.00,,BKN150,0.00,VWS V14.01,2013-04-04 12:31:00,
2013-04-04 07:36:00,36.7,24.9,30.15,NE,34,6.0,7.5,62,0.00,,BKN150,0.00,VWS V14.01,2013-04-04 12:36:00,
2013-04-04 07:42:00,36.9,25.1,30.15,NNE,32,7.5,12.0,62,0.00,,BKN150,0.00,VWS V14.01,2013-04-04 12:42:00,
2013-04-04 07:47:00,37.3,25.1,30.15,NE,40,6.0,12.0,61,0.00,,BKN150,0.00,VWS V14.01,2013-04-04 12:47:00,
2013-04-04 07:52:00,37.5,25.7,30.15,NE,39,3.0,12.0,62,0.00,,BKN150,0.00,VWS V14.01,2013-04-04 12:52:00,
2013-04-04 07:57:00,37.7,25.9,30.15,NE,44,7.5,12.0,62,0.00,,BKN150,0.00,VWS V14.01,2013-04-04 12:57:00,
2013-04-04 08:02:00,38.0,26.1,30.15,NNE,28,4.5,9.0,62,0.00,,BKN150,0.00,VWS V14.01,2013-04-04 13:02:00,
2013-04-04 08:07:00,38.3,26.0,30.15,North,11,4.5,9.0,61,0.00,,BKN150,0.00,VWS V14.01,2013-04-04 13:07:00,
2013-04-04 08:12:00,38.6,25.9,30.15,NE,36,3.0,9.0,60,0.00,,BKN150,0.00,VWS V14.01,2013-04-04 13:12:00,
2013-04-04 08:17:00,38.9,25.8,30.15,NE,44,6.0,9.0,59,0.00,,BKN150,0.00,VWS V14.01,2013-04-04 13:17:00,
2013-04-04 08:22:00,39.2,25.7,30.15,NE,45,3.0,9.0,58,0.00,,BKN150,0.00,VWS V14.01,2013-04-04 13:22:00,
2013-04-04 08:27:00,39.6,25.6,30.15,NNE,28,6.0,9.0,57,0.00,,BKN150,0.00,VWS V14.01,2013-04-04 13:27:00,
2013-04-04 08:32:00,40.1,25.2,30.14,ENE,61,0.0,7.5,55,0.00,,BKN150,0.00,VWS V14.01,2013-04-04 13:32:00,
2013-04-04 08:37:00,40.5,25.6,30.15,NE,44,6.0,10.5,55,0.00,,BKN150,0.00,VWS V14.01,2013-04-04 13:37:00,
2013-04-04 08:42:00,41.0,24.7,30.15,NNE,24,4.5,10.5,52,0.00,,BKN150,0.00,VWS V14.01,2013-04-04 13:42:00,
2013-04-04 08:47:00,41.6,24.8,30.14,ENE,66,0.0,10.5,51,0.00,,BKN150,0.00,VWS V14.01,2013-04-04 13:47:00,
2013-04-04 08:52:00,42.0,25.2,30.14,East,81,4.5,13.5,51,0.00,,BKN150,0.00,VWS V14.01,2013-04-04 13:52:00,
2013-04-04 08:57:00,42.4,24.6,30.14,NE,34,7.5,13.5,49,0.00,,BKN150,0.00,VWS V14.01,2013-04-04 13:57:00,
2013-04-04 09:02:00,42.8,25.0,30.14,SE,127,0.0,9.0,49,0.00,,BKN150,0.00,VWS V14.01,2013-04-04 14:02:00,
2013-04-04 09:07:00,43.3,25.4,30.14,East,90,0.0,9.0,49,0.00,,BKN150,0.00,VWS V14.01,2013-04-04 14:07:00,
2013-04-04 09:12:00,43.6,24.7,30.14,NE,41,7.5,9.0,47,0.00,,BKN150,0.00,VWS V14.01,2013-04-04 14:12:00,
2013-04-04 09:17:00,44.0,25.1,30.14,ENE,60,1.5,9.0,47,0.00,,BKN150,0.00,VWS V14.01,2013-04-04 14:17:00,
2013-04-04 09:22:00,44.4,24.9,30.14,East,80,0.0,9.0,46,0.00,,BKN150,0.00,VWS V14.01,2013-04-04 14:22:00,
2013-04-04 09:27:00,44.8,25.3,30.14,NE,35,7.5,9.0,46,0.00,,BKN150,0.00,VWS V14.01,2013-04-04 14:27:00,
2013-04-04 09:32:00,45.2,25.1,30.14,ENE,70,0.0,9.0,45,0.00,,BKN150,0.00,VWS V14.01,2013-04-04 14:32:00,
2013-04-04 09:37:00,45.5,25.4,30.13,NE,49,3.0,9.0,45,0.00,,BKN150,0.00,VWS V14.01,2013-04-04 14:37:00,
2013-04-04 09:43:00,45.8,25.7,30.13,East,88,0.0,9.0,45,0.00,,BKN150,0.00,VWS V14.01,2013-04-04 14:43:00,
2013-04-04 09:48:00,46.0,25.9,30.13,ENE,65,0.0,9.0,45,0.00,,BKN150,0.00,VWS V14.01,2013-04-04 14:48:00,
2013-04-04 09:53:00,46.4,26.2,30.13,NE,42,0.0,9.0,45,0.00,,BKN150,0.00,VWS V14.01,2013-04-04 14:53:00,
2013-04-04 09:58:00,46.8,26.6,30.13,East,79,0.0,9.0,45,0.00,,BKN150,0.00,VWS V14.01,2013-04-04 14:58:00,
2013-04-04 10:03:00,47.3,26.0,30.13,East,82,0.0,9.0,43,0.00,,BKN150,0.00,VWS V14.01,2013-04-04 15:03:00,
2013-04-04 10:08:00,47.6,25.7,30.12,East,90,0.0,9.0,42,0.00,,BKN150,0.00,VWS V14.01,2013-04-04 15:08:00,
2013-04-04 10:13:00,48.0,26.0,30.12,NNE,28,4.5,9.0,42,0.00,,BKN150,0.00,VWS V14.01,2013-04-04 15:13:00,
2013-04-04 10:18:00,48.5,26.5,30.12,East,98,0.0,9.0,42,0.00,,BKN150,0.00,VWS V14.01,2013-04-04 15:18:00,
2013-04-04 10:23:00,48.7,25.5,30.12,East,96,1.5,9.0,40,0.00,,BKN150,0.00,VWS V14.01,2013-04-04 15:23:00,
2013-04-04 10:28:00,48.9,26.2,30.12,ESE,116,0.0,9.0,41,0.00,,BKN150,0.00,VWS V14.01,2013-04-04 15:28:00,
2013-04-04 10:33:00,49.0,25.8,30.12,East,90,0.0,6.0,40,0.00,,BKN150,0.00,VWS V14.01,2013-04-04 15:33:00,
2013-04-04 10:38:00,49.4,26.7,30.12,East,101,0.0,6.0,41,0.00,,BKN150,0.00,VWS V14.01,2013-04-04 15:38:00,
2013-04-04 10:43:00,49.6,26.3,30.12,SE,138,0.0,6.0,40,0.00,,BKN150,0.00,VWS V14.01,2013-04-04 15:43:00,
2013-04-04 10:48:00,49.9,28.3,30.12,SE,138,0.0,6.0,43,0.00,,BKN150,0.00,VWS V14.01,2013-04-04 15:48:00,
2013-04-04 10:53:00,50.4,27.0,30.12,East,88,0.0,7.5,40,0.00,,BKN150,0.00,VWS V14.01,2013-04-04 15:53:00,
2013-04-04 10:58:00,50.8,27.4,30.12,ENE,69,0.0,7.5,40,0.00,,BKN150,0.00,VWS V14.01,2013-04-04 15:58:00,
2013-04-04 11:03:00,51.2,27.7,30.11,East,97,3.0,6.0,40,0.00,,BKN150,0.00,VWS V14.01,2013-04-04 16:03:00,
2013-04-04 11:08:00,51.4,27.3,30.11,South,173,1.5,7.5,39,0.00,,BKN150,0.00,VWS V14.01,2013-04-04 16:08:00,
2013-04-04 11:13:00,51.6,26.8,30.11,East,98,0.0,7.5,38,0.00,,BKN150,0.00,VWS V14.01,2013-04-04 16:13:00,
2013-04-04 11:19:00,51.9,27.1,30.11,ENE,59,0.0,7.5,38,0.00,,BKN150,0.00,VWS V14.01,2013-04-04 16:19:00,
2013-04-04 11:24:00,52.2,27.4,30.11,ESE,111,0.0,7.5,38,0.00,,BKN150,0.00,VWS V14.01,2013-04-04 16:24:00,
2013-04-04 11:29:00,52.6,27.7,30.11,ESE,108,0.0,0.0,38,0.00,,BKN150,0.00,VWS V14.01,2013-04-04 16:29:00,
2013-04-04 11:34:00,52.8,26.6,30.11,East,101,3.0,6.0,36,0.00,,BKN150,0.00,VWS V14.01,2013-04-04 16:34:00,
2013-04-04 11:39:00,53.1,26.9,30.11,East,100,0.0,6.0,36,0.00,,BKN150,0.00,VWS V14.01,2013-04-04 16:39:00,
2013-04-04 11:44:00,53.2,26.3,30.11,East,98,0.0,7.5,35,0.00,,BKN150,0.00,VWS V14.01,2013-04-04 16:44:00,
2013-04-04 11:50:00,53.5,27.2,30.10,East,88,0.0,7.5,36,0.00,,BKN150,0.00,VWS V14.01,2013-04-04 16:50:00,
2013-04-04 11:55:00,54.1,28.4,30.10,East,88,0.0,7.5,37,0.00,,BKN150,0.00,VWS V14.01,2013-04-04 16:55:00,
2013-04-04 12:00:00,54.4,27.3,30.10,NNE,29,9.0,10.5,35,0.00,,BKN150,0.00,VWS V14.01,2013-04-04 17:00:00,
2013-04-04 12:05:00,54.5,26.7,30.10,NNE,32,6.0,10.5,34,0.00,,BKN150,0.00,VWS V14.01,2013-04-04 17:05:00,
2013-04-04 12:10:00,54.6,24.6,30.10,NNE,29,0.0,10.5,31,0.00,,BKN150,0.00,VWS V14.01,2013-04-04 17:10:00,
2013-04-04 12:15:00,54.8,27.7,30.09,East,90,3.0,16.5,35,0.00,,BKN150,0.00,VWS V14.01,2013-04-04 17:15:00,
2013-04-04 12:20:00,55.0,25.7,30.09,NE,51,0.0,16.5,32,0.00,,BKN150,0.00,VWS V14.01,2013-04-04 17:20:00,
2013-04-04 12:25:00,55.4,28.2,30.09,NNE,26,9.0,16.5,35,0.00,,BKN150,0.00,VWS V14.01,2013-04-04 17:25:00,
2013-04-04 12:30:00,55.6,27.7,30.09,NNE,19,4.5,7.5,34,0.00,,BKN150,0.00,VWS V14.01,2013-04-04 17:30:00,
2013-04-04 12:35:00,55.6,27.7,30.09,NNE,12,6.0,16.5,34,0.00,,BKN150,0.00,VWS V14.01,2013-04-04 17:35:00,
2013-04-04 12:40:00,55.3,28.1,30.08,NNE,19,3.0,16.5,35,0.00,,BKN150,0.00,VWS V14.01,2013-04-04 17:40:00,
2013-04-04 12:45:00,55.6,27.0,30.08,NNW,347,6.0,16.5,33,0.00,,BKN150,0.00,VWS V14.01,2013-04-04 17:45:00,
2013-04-04 12:50:00,55.7,27.1,30.08,North,5,7.5,18.0,33,0.00,,BKN150,0.00,VWS V14.01,2013-04-04 17:50:00,
2013-04-04 12:55:00,55.7,29.2,30.08,North,360,10.5,18.0,36,0.00,,BKN150,0.00,VWS V14.01,2013-04-04 17:55:00,
2013-04-04 13:00:00,55.5,26.9,30.08,NNE,13,6.0,10.5,33,0.00,,BKN250,0.00,VWS V14.01,2013-04-04 18:00:00,
2013-04-04 13:05:00,55.7,26.3,30.08,ENE,67,0.0,12.0,32,0.00,,BKN250,0.00,VWS V14.01,2013-04-04 18:05:00,
2013-04-04 13:10:00,55.8,27.9,30.08,NNE,16,16.5,18.0,34,0.00,,BKN250,0.00,VWS V14.01,2013-04-04 18:10:00,
2013-04-04 13:15:00,55.7,26.3,30.07,North,5,13.5,18.0,32,0.00,,BKN250,0.00,VWS V14.01,2013-04-04 18:15:00,
2013-04-04 13:20:00,55.7,27.1,30.07,North,360,9.0,19.5,33,0.00,,BKN250,0.00,VWS V14.01,2013-04-04 18:20:00,
2013-04-04 13:25:00,55.6,29.1,30.07,North,360,12.0,19.5,36,0.00,,BKN250,0.00,VWS V14.01,2013-04-04 18:25:00,
2013-04-04 13:30:00,55.7,27.1,30.06,North,360,7.5,13.5,33,0.00,,BKN250,0.00,VWS V14.01,2013-04-04 18:30:00,
2013-04-04 13:35:00,55.9,27.2,30.06,NNE,21,6.0,16.5,33,0.00,,BKN250,0.00,VWS V14.01,2013-04-04 18:35:00,
2013-04-04 13:40:00,56.1,28.8,30.06,North,355,7.5,16.5,35,0.00,,BKN250,0.00,VWS V14.01,2013-04-04 18:40:00,
2013-04-04 13:45:00,56.6,27.9,30.06,NE,36,9.0,16.5,33,0.00,,BKN250,0.00,VWS V14.01,2013-04-04 18:45:00,
2013-04-04 13:50:00,56.9,28.1,30.06,North,5,3.0,16.5,33,0.00,,BKN250,0.00,VWS V14.01,2013-04-04 18:50:00,
2013-04-04 13:55:00,57.3,29.2,30.06,ENE,71,0.0,16.5,34,0.00,,BKN250,0.00,VWS V14.01,2013-04-04 18:55:00,
2013-04-04 14:00:00,57.7,25.7,30.05,NNE,29,1.5,15.0,29,0.00,,OVC250,0.00,VWS V14.01,2013-04-04 19:00:00,
2013-04-04 14:06:00,58.2,28.5,30.05,NW,313,3.0,15.0,32,0.00,,OVC250,0.00,VWS V14.01,2013-04-04 19:06:00,
2013-04-04 14:11:00,58.5,27.2,30.05,NNE,24,12.0,18.0,30,0.00,,OVC250,0.00,VWS V14.01,2013-04-04 19:11:00,
2013-04-04 14:16:00,58.2,26.9,30.05,NE,51,0.0,18.0,30,0.00,,OVC250,0.00,VWS V14.01,2013-04-04 19:16:00,
2013-04-04 14:21:00,58.3,26.2,30.04,NNE,32,7.5,18.0,29,0.00,,OVC250,0.00,VWS V14.01,2013-04-04 19:21:00,
2013-04-04 14:26:00,58.0,26.8,30.04,NNE,12,13.5,18.0,30,0.00,,OVC250,0.00,VWS V14.01,2013-04-04 19:26:00,
2013-04-04 14:31:00,57.9,29.7,30.04,North,5,9.0,9.0,34,0.00,,OVC250,0.00,VWS V14.01,2013-04-04 19:31:00,
2013-04-04 14:36:00,58.3,27.0,30.04,NNE,26,16.5,16.5,30,0.00,,OVC250,0.00,VWS V14.01,2013-04-04 19:36:00,
2013-04-04 14:41:00,58.6,26.5,30.04,NNE,12,10.5,18.0,29,0.00,,OVC250,0.00,VWS V14.01,2013-04-04 19:41:00,
2013-04-04 14:46:00,58.7,28.2,30.04,NNW,332,1.5,18.0,31,0.00,,OVC250,0.00,VWS V14.01,2013-04-04 19:46:00,
2013-04-04 14:51:00,58.9,26.7,30.04,NNE,17,4.5,18.0,29,0.00,,OVC250,0.00,VWS V14.01,2013-04-04 19:51:00,
2013-04-04 14:57:00,58.9,29.1,30.04,North,5,3.0,18.0,32,0.00,,OVC250,0.00,VWS V14.01,2013-04-04 19:57:00,
2013-04-04 15:02:00,59.5,27.2,30.04,NNE,30,4.5,16.5,29,0.00,,BKN250,0.00,VWS V14.01,2013-04-04 20:02:00,
2013-04-04 15:07:00,59.7,28.2,30.03,North,9,7.5,16.5,30,0.00,,BKN250,0.00,VWS V14.01,2013-04-04 20:07:00,
2013-04-04 15:12:00,59.3,28.7,30.02,North,351,9.0,16.5,31,0.00,,BKN250,0.00,VWS V14.01,2013-04-04 20:12:00,
2013-04-04 15:17:00,59.4,27.2,30.02,NNE,26,4.5,16.5,29,0.00,,BKN250,0.00,VWS V14.01,2013-04-04 20:17:00,
2013-04-04 15:22:00,59.3,27.9,30.02,NW,319,6.0,16.5,30,0.00,,BKN250,0.00,VWS V14.01,2013-04-04 20:22:00,
2013-04-04 15:27:00,59.4,28.0,30.03,North,5,7.5,16.5,30,0.00,,BKN250,0.00,VWS V14.01,2013-04-04 20:27:00,
2013-04-04 15:32:00,59.3,28.7,30.02,NNE,19,9.0,13.5,31,0.00,,BKN250,0.00,VWS V14.01,2013-04-04 20:32:00,
2013-04-04 15:37:00,59.3,27.1,30.02,North,355,9.0,13.5,29,0.00,,BKN250,0.00,VWS V14.01,2013-04-04 20:37:00,
2013-04-04 15:42:00,59.1,27.7,30.02,North,5,9.0,16.5,30,0.00,,BKN250,0.00,VWS V14.01,2013-04-04 20:42:00,
2013-04-04 15:47:00,59.3,27.1,30.02,NNE,25,6.0,16.5,29,0.00,,BKN250,0.00,VWS V14.01,2013-04-04 20:47:00,
2013-04-04 15:52:00,59.7,27.4,30.02,NNE,32,7.5,16.5,29,0.00,,BKN250,0.00,VWS V14.01,2013-04-04 20:52:00,
2013-04-04 15:57:00,60.0,26.0,30.02,NNE,14,7.5,16.5,27,0.00,,BKN250,0.00,VWS V14.01,2013-04-04 20:57:00,
2013-04-04 16:02:00,59.9,25.9,30.01,NNE,16,13.5,13.5,27,0.00,,BKN250,0.00,VWS V14.01,2013-04-04 21:02:00,
2013-04-04 16:07:00,59.6,25.6,30.01,NE,46,7.5,15.0,27,0.00,,BKN250,0.00,VWS V14.01,2013-04-04 21:07:00,
2013-04-04 16:12:00,60.0,29.3,30.01,NNW,343,7.5,15.0,31,0.00,,BKN250,0.00,VWS V14.01,2013-04-04 21:12:00,
2013-04-04 16:17:00,59.9,28.4,30.01,NNE,18,4.5,15.0,30,0.00,,BKN250,0.00,VWS V14.01,2013-04-04 21:17:00,
2013-04-04 16:22:00,59.9,26.7,30.01,NNE,33,6.0,15.0,28,0.00,,BKN250,0.00,VWS V14.01,2013-04-04 21:22:00,
2013-04-04 16:27:00,59.7,26.6,30.01,NNE,17,7.5,15.0,28,0.00,,BKN250,0.00,VWS V14.01,2013-04-04 21:27:00,
2013-04-04 16:32:00,59.3,27.9,30.01,North,360,7.5,10.5,30,0.00,,BKN250,0.00,VWS V14.01,2013-04-04 21:32:00,
2013-04-04 16:38:00,59.2,27.0,30.01,NNE,20,9.0,10.5,29,0.00,,BKN250,0.00,VWS V14.01,2013-04-04 21:38:00,
2013-04-04 16:43:00,59.3,28.7,30.01,NNE,16,4.5,10.5,31,0.00,,BKN250,0.00,VWS V14.01,2013-04-04 21:43:00,
2013-04-04 16:48:00,59.8,27.5,30.01,NE,34,12.0,12.0,29,0.00,,BKN250,0.00,VWS V14.01,2013-04-04 21:48:00,
2013-04-04 16:53:00,60.1,26.0,30.01,NE,41,3.0,12.0,27,0.00,,BKN250,0.00,VWS V14.01,2013-04-04 21:53:00,
2013-04-04 16:58:00,60.3,27.9,30.00,North,5,9.0,12.0,29,0.00,,BKN250,0.00,VWS V14.01,2013-04-04 21:58:00,
2013-04-04 17:03:00,60.0,26.0,30.01,NNE,15,4.5,12.0,27,0.00,,BKN250,0.00,VWS V14.01,2013-04-04 22:03:00,
2013-04-04 17:08:00,60.0,27.7,30.01,North,5,4.5,12.0,29,0.00,,BKN250,0.00,VWS V14.01,2013-04-04 22:08:00,
2013-04-04 17:13:00,60.0,26.0,30.01,North,5,4.5,12.0,27,0.00,,BKN250,0.00,VWS V14.01,2013-04-04 22:13:00,
2013-04-04 17:18:00,60.0,26.0,30.01,NE,36,7.5,12.0,27,0.00,,BKN250,0.00,VWS V14.01,2013-04-04 22:18:00,
2013-04-04 17:23:00,60.4,27.2,30.01,East,84,0.0,12.0,28,0.00,,BKN250,0.00,VWS V14.01,2013-04-04 22:23:00,
2013-04-04 17:28:00,60.7,26.5,30.01,NE,45,9.0,12.0,27,0.00,,BKN250,0.00,VWS V14.01,2013-04-04 22:28:00,
2013-04-04 17:33:00,60.9,26.7,30.01,ESE,114,0.0,7.5,27,0.00,,BKN250,0.00,VWS V14.01,2013-04-04 22:33:00,
2013-04-04 17:38:00,61.3,27.1,30.01,NE,40,3.0,7.5,27,0.00,,BKN250,0.00,VWS V14.01,2013-04-04 22:38:00,
2013-04-04 17:43:00,61.4,26.2,30.01,NE,55,6.0,7.5,26,0.00,,BKN250,0.00,VWS V14.01,2013-04-04 22:43:00,
2013-04-04 17:48:00,61.4,25.3,30.01,NE,44,3.0,7.5,25,0.00,,BKN250,0.00,VWS V14.01,2013-04-04 22:48:00,
2013-04-04 17:53:00,61.3,25.2,30.01,NE,51,0.0,7.5,25,0.00,,BKN250,0.00,VWS V14.01,2013-04-04 22:53:00,
2013-04-04 17:58:00,61.2,26.1,30.01,NE,51,1.5,7.5,26,0.00,,BKN250,0.00,VWS V14.01,2013-04-04 22:58:00,
2013-04-04 18:03:00,60.6,26.5,30.00,NNE,33,3.0,7.5,27,0.00,,BKN250,0.00,VWS V14.01,2013-04-04 23:03:00,
2013-04-04 18:08:00,60.1,26.9,30.01,NNE,33,3.0,7.5,28,0.00,,BKN250,0.00,VWS V14.01,2013-04-04 23:08:00,
2013-04-04 18:13:00,59.7,26.6,30.01,NNE,33,4.5,7.5,28,0.00,,BKN250,0.00,VWS V14.01,2013-04-04 23:13:00,
2013-04-04 18:18:00,59.3,24.4,30.01,NNE,33,4.5,7.5,26,0.00,,BKN250,0.00,VWS V14.01,2013-04-04 23:18:00,
2013-04-04 18:23:00,59.0,26.8,30.01,NNE,33,4.5,7.5,29,0.00,,BKN250,0.00,VWS V14.01,2013-04-04 23:23:00,
2013-04-04 18:28:00,58.7,25.7,30.01,NNE,33,3.0,7.5,28,0.00,,BKN250,0.00,VWS V14.01,2013-04-04 23:28:00,
2013-04-04 18:33:00,58.5,26.4,30.01,NNE,33,3.0,6.0,29,0.00,,BKN250,0.00,VWS V14.01,2013-04-04 23:33:00,
2013-04-04 18:38:00,58.3,27.0,30.01,NNE,33,4.5,6.0,30,0.00,,BKN250,0.00,VWS V14.01,2013-04-04 23:38:00,
2013-04-04 18:43:00,58.2,26.9,30.01,NNE,33,4.5,6.0,30,0.00,,BKN250,0.00,VWS V14.01,2013-04-04 23:43:00,
2013-04-04 18:48:00,58.1,29.2,30.01,NNE,33,0.0,6.0,33,0.00,,BKN250,0.00,VWS V14.01,2013-04-04 23:48:00,
2013-04-04 18:53:00,57.9,29.7,30.00,NNE,33,0.0,6.0,34,0.00,,CLR,0.00,VWS V14.01,2013-04-04 23:53:00,
2013-04-04 18:58:00,57.7,28.8,30.00,NNE,33,0.0,6.0,33,0.00,,CLR,0.00,VWS V14.01,2013-04-04 23:58:00,
2013-04-04 19:03:00,57.5,27.9,30.01,NNE,33,0.0,0.0,32,0.00,,CLR,0.00,VWS V14.01,2013-04-05 00:03:00,
2013-04-04 19:08:00,57.3,27.0,30.01,NNE,33,0.0,3.0,31,0.00,,CLR,0.00,VWS V14.01,2013-04-05 00:08:00,
2013-04-04 19:14:00,57.1,27.5,30.00,NNE,33,0.0,3.0,32,0.00,,CLR,0.00,VWS V14.01,2013-04-05 00:14:00,
2013-04-04 19:19:00,57.0,28.9,30.00,NNE,33,0.0,3.0,34,0.00,,CLR,0.00,VWS V14.01,2013-04-05 00:19:00,
2013-04-04 19:24:00,56.8,27.3,30.00,NNE,33,0.0,3.0,32,0.00,,CLR,0.00,VWS V14.01,2013-04-05 00:24:00,
2013-04-04 19:29:00,56.6,27.1,30.00,NNE,33,0.0,0.0,32,0.00,,CLR,0.00,VWS V14.01,2013-04-05 00:29:00,
2013-04-04 19:34:00,56.5,29.2,30.00,NNE,33,0.0,0.0,35,0.00,,CLR,0.00,VWS V14.01,2013-04-05 00:34:00,
2013-04-04 19:39:00,56.3,30.4,30.00,NNE,33,0.0,0.0,37,0.00,,CLR,0.00,VWS V14.01,2013-04-05 00:39:00,
2013-04-04 19:44:00,55.9,30.0,30.00,NNE,33,0.0,0.0,37,0.00,,CLR,0.00,VWS V14.01,2013-04-05 00:44:00,
2013-04-04 19:49:00,55.4,31.5,30.00,NNE,33,0.0,0.0,40,0.00,,CLR,0.00,VWS V14.01,2013-04-05 00:49:00,
2013-04-04 19:55:00,54.4,33.0,30.01,NNE,33,0.0,1.5,44,0.00,,CLR,0.00,VWS V14.01,2013-04-05 00:55:00,
2013-04-04 20:00:00,53.3,30.8,30.01,NNE,33,0.0,0.0,42,0.00,,CLR,0.00,VWS V14.01,2013-04-05 01:00:00,
2013-04-04 20:05:00,52.7,30.9,30.01,NNE,33,0.0,0.0,43,0.00,,CLR,0.00,VWS V14.01,2013-04-05 01:05:00,
2013-04-04 20:09:00,52.3,28.7,30.01,NNE,33,0.0,0.0,40,0.00,,CLR,0.00,VWS V14.01,2013-04-05 01:09:00,
2013-04-04 20:15:00,51.8,32.2,30.01,NNE,33,1.5,3.0,47,0.00,,CLR,0.00,VWS V14.01,2013-04-05 01:15:00,
2013-04-04 20:20:00,51.2,33.2,30.01,NNE,33,0.0,3.0,50,0.00,,CLR,0.00,VWS V14.01,2013-04-05 01:20:00,
2013-04-04 20:25:00,50.7,33.2,30.01,NNE,33,0.0,3.0,51,0.00,,CLR,0.00,VWS V14.01,2013-04-05 01:25:00,
2013-04-04 20:30:00,50.0,32.1,30.01,NNE,33,0.0,0.0,50,0.00,,CLR,0.00,VWS V14.01,2013-04-05 01:30:00,
2013-04-04 20:35:00,49.6,31.2,30.01,NNE,33,0.0,3.0,49,0.00,,CLR,0.00,VWS V14.01,2013-04-05 01:35:00,
2013-04-04 20:40:00,49.2,31.9,30.02,NNE,33,0.0,3.0,51,0.00,,CLR,0.00,VWS V14.01,2013-04-05 01:40:00,
2013-04-04 20:45:00,48.8,30.5,30.02,NNE,33,0.0,3.0,49,0.00,,CLR,0.00,VWS V14.01,2013-04-05 01:45:00,
2013-04-04 20:50:00,48.7,30.9,30.02,NNE,33,0.0,3.0,50,0.00,,CLR,0.00,VWS V14.01,2013-04-05 01:50:00,
2013-04-04 20:55:00,48.8,30.5,30.02,NNE,33,0.0,3.0,49,0.00,,CLR,0.00,VWS V14.01,2013-04-05 01:55:00,
2013-04-04 21:00:00,48.9,30.1,30.03,NNE,33,0.0,0.0,48,0.00,,CLR,0.00,VWS V14.01,2013-04-05 02:00:00,
2013-04-04 21:05:00,49.0,30.2,30.03,NNE,33,0.0,0.0,48,0.00,,CLR,0.00,VWS V14.01,2013-04-05 02:05:00,
2013-04-04 21:10:00,49.0,31.7,30.03,NNE,33,0.0,0.0,51,0.00,,CLR,0.00,VWS V14.01,2013-04-05 02:10:00,
2013-04-04 21:15:00,48.9,31.6,30.03,NNE,33,0.0,0.0,51,0.00,,CLR,0.00,VWS V14.01,2013-04-05 02:15:00,
2013-04-04 21:20:00,48.7,31.4,30.03,NNE,33,0.0,0.0,51,0.00,,CLR,0.00,VWS V14.01,2013-04-05 02:20:00,
2013-04-04 21:25:00,48.5,32.2,30.03,NNE,33,0.0,0.0,53,0.00,,CLR,0.00,VWS V14.01,2013-04-05 02:25:00,
2013-04-04 21:30:00,48.3,33.3,30.03,NNE,33,0.0,0.0,56,0.00,,CLR,0.00,VWS V14.01,2013-04-05 02:30:00,
2013-04-04 21:35:00,47.8,32.9,30.03,NNE,33,0.0,0.0,56,0.00,,CLR,0.00,VWS V14.01,2013-04-05 02:35:00,
2013-04-04 21:40:00,47.2,31.9,30.03,NNE,33,0.0,0.0,55,0.00,,CLR,0.00,VWS V14.01,2013-04-05 02:40:00,
2013-04-04 21:45:00,46.8,32.4,30.03,NNE,33,0.0,0.0,57,0.00,,CLR,0.00,VWS V14.01,2013-04-05 02:45:00,
2013-04-04 21:50:00,46.4,32.9,30.03,NNE,33,0.0,0.0,59,0.00,,CLR,0.00,VWS V14.01,2013-04-05 02:50:00,
2013-04-04 21:55:00,46.1,32.6,30.03,NNE,33,0.0,0.0,59,0.00,,CLR,0.00,VWS V14.01,2013-04-05 02:55:00,
2013-04-04 22:00:00,45.8,32.3,30.03,NNE,33,0.0,0.0,59,0.00,,CLR,0.00,VWS V14.01,2013-04-05 03:00:00,
2013-04-04 22:05:00,45.7,32.2,30.03,NNE,33,0.0,0.0,59,0.00,,CLR,0.00,VWS V14.01,2013-04-05 03:05:00,
2013-04-04 22:10:00,45.6,32.1,30.03,NNE,33,0.0,0.0,59,0.00,,CLR,0.00,VWS V14.01,2013-04-05 03:10:00,
2013-04-04 22:15:00,45.5,32.4,30.03,NNE,33,0.0,0.0,60,0.00,,CLR,0.00,VWS V14.01,2013-04-05 03:15:00,
2013-04-04 22:20:00,45.3,33.1,30.03,NNE,33,0.0,0.0,62,0.00,,CLR,0.00,VWS V14.01,2013-04-05 03:20:00,
2013-04-04 22:25:00,45.1,32.5,30.03,NNE,33,0.0,0.0,61,0.00,,CLR,0.00,VWS V14.01,2013-04-05 03:25:00,
2013-04-04 22:30:00,44.9,32.3,30.03,NNE,33,0.0,0.0,61,0.00,,CLR,0.00,VWS V14.01,2013-04-05 03:30:00,
2013-04-04 22:35:00,44.5,32.7,30.03,NNE,33,0.0,0.0,63,0.00,,CLR,0.00,VWS V14.01,2013-04-05 03:35:00,
2013-04-04 22:40:00,44.2,32.4,30.03,NNE,33,0.0,0.0,63,0.00,,CLR,0.00,VWS V14.01,2013-04-05 03:40:00,
2013-04-04 22:46:00,43.7,32.3,30.03,NNE,33,0.0,0.0,64,0.00,,CLR,0.00,VWS V14.01,2013-04-05 03:46:00,
2013-04-04 22:51:00,43.3,32.3,30.03,NNE,33,0.0,0.0,65,0.00,,CLR,0.00,VWS V14.01,2013-04-05 03:51:00,
2013-04-04 22:56:00,43.1,33.3,30.03,NNE,33,0.0,0.0,68,0.00,,CLR,0.00,VWS V14.01,2013-04-05 03:56:00,
2013-04-04 23:00:00,42.7,34.0,30.03,NNE,33,0.0,0.0,71,0.00,,CLR,0.00,VWS V14.01,2013-04-05 04:00:00,
2013-04-04 23:02:00,42.5,33.8,30.03,NNE,33,0.0,3.0,71,0.00,,CLR,0.00,VWS V14.01,2013-04-05 04:02:00,
2013-04-04 23:07:00,42.0,33.3,30.03,NNE,33,0.0,3.0,71,0.00,,CLR,0.00,VWS V14.01,2013-04-05 04:07:00,
2013-04-04 23:12:00,41.8,32.8,30.03,NNE,33,0.0,3.0,70,0.00,,CLR,0.00,VWS V14.01,2013-04-05 04:12:00,
2013-04-04 23:17:00,41.6,32.2,30.03,NNE,33,0.0,3.0,69,0.00,,CLR,0.00,VWS V14.01,2013-04-05 04:17:00,
2013-04-04 23:22:00,41.4,31.3,30.04,NNE,33,0.0,3.0,67,0.00,,CLR,0.00,VWS V14.01,2013-04-05 04:22:00,
2013-04-04 23:27:00,41.3,31.2,30.04,NNE,33,0.0,3.0,67,0.00,,CLR,0.00,VWS V14.01,2013-04-05 04:27:00,
2013-04-04 23:32:00,41.1,32.4,30.04,NNE,33,0.0,3.0,71,0.00,,CLR,0.00,VWS V14.01,2013-04-05 04:32:00,
2013-04-04 23:37:00,40.7,31.7,30.04,NNE,33,0.0,3.0,70,0.00,,CLR,0.00,VWS V14.01,2013-04-05 04:37:00,
2013-04-04 23:42:00,40.6,30.9,30.04,NNE,33,0.0,3.0,68,0.00,,CLR,0.00,VWS V14.01,2013-04-05 04:42:00,
2013-04-04 23:47:00,40.6,31.2,30.04,NNE,33,0.0,3.0,69,0.00,,CLR,0.00,VWS V14.01,2013-04-05 04:47:00,
2013-04-04 23:52:00,40.6,32.6,30.04,NNE,33,0.0,3.0,73,0.00,,CLR,0.00,VWS V14.01,2013-04-05 04:52:00,
2013-04-04 23:57:00,40.5,32.5,30.04,NNE,33,0.0,3.0,73,0.00,,CLR,0.00,VWS V14.01,2013-04-05 04:57:00,